Showing default

EXPLORER 38 (RAE-A), 3307

Orbit data source: Space-Track

EXPLORER 38 (RAE-A), 3307 is a payload satellite owned by GSFC (US) that was launched on Thu, 04 Jul 1968 UTC via a THOR DELTA J launch vehicle from the Air Force Western Test Range (AFWTR). Payload-class satellites include a variety of spacecraft equipped with specific instruments for various scientific and technological missions. These include communications satellites like Starlink; space stations such as the ISS; scientific satellites like the Hubble; Earth observation satellites from companies like Planet Labs, Umbra, and HawkEye 360; GPS; miniature CubeSats for education and research; and military/defense satellites.

Loading next visibility...
Identifier
3307, 1968-055A
Orbit
Active
Country
Flag of USUS
Related business
Manufacturer
GSFC/FAIRH
Mission
Spacecraft
Bus & Motor
RAE, Unknown motor
Mass
189 kg wet, 189 kg dry
Launch date (UTC)
1968-07-04 (58 years ago)
Launch vehicle
THOR DELTA J
Launch site
Air Force Western Test Range (AFWTR)
Object type
Payload
Rocket body
Debris
Shape & HBR
Unknown
Radar Cross Section
Large (>1 m²)

Expand to show TLE details & history
Last TLE update: 1 day ago

TLE from 1 day ago
0 EXPLORER 38 (RAE-A)
1  3307U 68055A   26197.30459653 -.00000010  00000-0  00000+0 0  9998
2  3307 120.8061 178.4329 0017297 284.0069  75.8611  6.42555080361308
Epoch: 2026-07-16T07:18Z
TLE epoch observation values (Epoch: 2026-07-16T07:18:37.140Z)
Latitude
0.00004°
Longitude
134.63016°
Altitude
5,839.196 km
Speed
5.714 km/s
True Right ascension
11h 53m 43s
True Declination
0° 00' 00"
Sunlit
Object was in daylight at epoch
Visualization orbit readout
Latitude
Unknown
Longitude
Unknown
Altitude
Unknown
Speed
Unknown
Apparent Right ascension
Unknown
Apparent Declination
Unknown
Sunlit
N/A
Visualization observer readout
Local Sidereal Time
20:36:16
Azimuth
Unknown
Elevation
Unknown
Doppler factor
Unknown
Orbital elements
Apogee altitude
5,864.231 km
Perigee altitude
5,821.953 km
Semi-major axis
12,221.229 km
Eccentricity
0.00173
Inclination
120.8061°
RAAN
178.4329°
Arg. of periapsis
284.0069°
True anomaly
76.05341°
Mean anomaly
75.8611°
Eccentric anomaly
75.95724°
Mean motion
1.60646 °/min
Orbital period
224.09 mins
BSTAR
0
Loading maneuver chart data...
Computing Atmospheric mass density...
Loading historical data...
Loading historical data...
Loading historical data...
Loading historical data...
Loading historical data...
Loading historical data...
Loading historical data...

Documentation

Showing up to 5 results
|